Albion, NE

11:55 AM CST on December 09, 2019 (GMT -0600)
Albion Municipal

Weather History for KBVN - June, 2019

Change the Weather History Date:

Monday, June 10, 2019

  Actual Average (KOFK) Record (KOFK)
Temperature  
Mean Temperature 60 °F -  
Max Temperature 77 °F 81 °F 109 °F (1933)
Min Temperature 45 °F 56 °F 36 °F (1928)
Degree Days  
Heating Degree Days 4    
Growing Degree Days 10 (Base 50)    
Moisture  
Dew Point 44 °F    
Average Humidity 57    
Maximum Humidity 95    
Minimum Humidity 26    
Precipitation  
Precipitation 0.00 in - - ()
Sea Level Pressure  
Sea Level Pressure 30.31 in    
Wind  
Wind Speed 5 mph (West)    
Max Wind Speed 14 mph    
Max Gust Speed 18 mph    
Visibility 10 miles    
Events      
Averages and records for this station are not official NWS values.
T = Trace of Precipitation, MM = Missing Value Source: NWS Daily Summary

Daily Weather History Graph

Daily Weather History Graph

Search for Another Location

Airport or City:

Astronomy

Jun. 10, 2019 Rise Set
Actual Time 5:57 AM CDT 9:06 PM CDT
Civil Twilight 5:23 AM CDT 9:40 PM CDT
Nautical Twilight 4:39 AM CDT 10:23 PM CDT
Astronomical Twilight 3:47 AM CDT 11:16 PM CDT
Moon 1:52 PM CDT (6/10) 2:17 AM CDT (6/10)
Length of Visible Light 16h 16m
Length of Day
15h 08m
First Quarter, 55% of the Moon is Illuminated
Jun 10
First Quarter
Jun 17
Full
Jun 25
Last Quarter
Jul 2
New
Jul 9
First Quarter

Hourly Weather History & Observations

Time (CDT) Temp. Windchill Dew Point Humidity Pressure Visibility Wind Dir Wind Speed Gust Speed Precip Events Conditions
12:15 AM 51.3 °F - 46.8 °F 85% 30.36 in 10.0 mi NNW 3.5 mph - N/A   Clear
12:35 AM 50.0 °F - 46.8 °F 89% 30.36 in 10.0 mi NW 4.6 mph - N/A   Clear
12:55 AM 50.0 °F - 46.6 °F 88% 30.36 in 10.0 mi NNW 4.6 mph - N/A   Clear
1:15 AM 49.6 °F - 46.6 °F 89% 30.36 in 10.0 mi NNW 4.6 mph - N/A   Clear
1:35 AM 49.1 °F - 46.6 °F 91% 30.36 in 10.0 mi NNW 4.6 mph - N/A   Clear
1:55 AM 48.7 °F - 46.4 °F 92% 30.36 in 10.0 mi NW 4.6 mph - N/A   Clear
2:15 AM 49.1 °F - 46.0 °F 89% 30.36 in 10.0 mi North 4.6 mph - N/A   Clear
2:35 AM 48.0 °F - 45.1 °F 90% 30.36 in 10.0 mi NW 4.6 mph - N/A   Clear
2:55 AM 48.2 °F - 45.5 °F 90% 30.36 in 10.0 mi NW 3.5 mph - N/A   Clear
3:15 AM 47.7 °F - 45.1 °F 91% 30.37 in 10.0 mi NNW 3.5 mph - N/A   Clear
3:35 AM 46.8 °F - 45.3 °F 95% 30.37 in 10.0 mi NNW 3.5 mph - N/A   Clear
3:55 AM 47.1 °F - 45.1 °F 93% 30.37 in 10.0 mi NNW 3.5 mph - N/A   Clear
4:15 AM 46.8 °F - 44.8 °F 93% 30.37 in 10.0 mi NW 5.8 mph - N/A   Clear
4:35 AM 47.3 °F - 45.3 °F 93% 30.37 in 10.0 mi NNW 4.6 mph - N/A   Clear
4:55 AM 46.6 °F - 44.6 °F 93% 30.38 in 10.0 mi NNW 4.6 mph - N/A   Clear
5:15 AM 46.4 °F 45.2 °F 44.2 °F 92% 30.38 in 10.0 mi NW 3.5 mph - N/A   Clear
5:35 AM 45.9 °F 44.6 °F 43.9 °F 93% 30.38 in 10.0 mi NNW 3.5 mph - N/A   Clear
5:55 AM 45.1 °F - 43.9 °F 95% 30.38 in 10.0 mi Calm Calm - N/A   Clear
6:15 AM 45.0 °F - 43.7 °F 95% 30.39 in 10.0 mi Calm Calm - N/A   Clear
6:35 AM 45.3 °F - 43.9 °F 95% 30.39 in 10.0 mi Calm Calm - N/A   Clear
6:55 AM 47.1 °F - 45.3 °F 93% 30.39 in 10.0 mi Calm Calm - N/A   Clear
7:15 AM 49.1 °F - 45.9 °F 89% 30.39 in 10.0 mi Calm Calm - N/A   Clear
7:35 AM 51.6 °F - 46.9 °F 84% 30.40 in 10.0 mi NNW 4.6 mph - N/A   Clear
7:55 AM 54.0 °F - 47.7 °F 79% 30.40 in 10.0 mi Calm Calm - N/A   Clear
8:15 AM 56.3 °F - 49.8 °F 79% 30.40 in 10.0 mi Calm Calm - N/A   Clear
8:35 AM 60.1 °F - 48.4 °F 65% 30.40 in 10.0 mi WNW 8.1 mph - N/A   Clear
8:55 AM 61.0 °F - 47.1 °F 60% 30.40 in 10.0 mi West 3.5 mph - N/A   Clear
9:15 AM 63.5 °F - 48.9 °F 59% 30.40 in 10.0 mi West 5.8 mph - N/A   Clear
9:35 AM 65.3 °F - 48.4 °F 54% 30.40 in 10.0 mi West 4.6 mph - N/A   Clear
9:55 AM 66.2 °F - 48.0 °F 52% 30.39 in 10.0 mi West 6.9 mph - N/A   Clear
10:15 AM 67.3 °F - 47.8 °F 50% 30.39 in 10.0 mi West 6.9 mph - N/A   Clear
10:35 AM 68.2 °F - 46.6 °F 46% 30.39 in 10.0 mi WNW 10.4 mph - N/A   Clear
10:55 AM 69.4 °F - 45.0 °F 41% 30.39 in 10.0 mi West 6.9 mph - N/A   Clear
11:15 AM 70.7 °F - 43.7 °F 38% 30.38 in 10.0 mi WNW 10.4 mph - N/A   Clear
11:35 AM 71.1 °F - 41.7 °F 35% 30.38 in 10.0 mi West 10.4 mph - N/A   Clear
11:55 AM 71.6 °F - 42.8 °F 35% 30.37 in 10.0 mi WSW 6.9 mph - N/A   Clear
12:15 PM 72.5 °F - 43.9 °F 36% 30.37 in 10.0 mi West 6.9 mph - N/A   Clear
12:35 PM 72.5 °F - 45.9 °F 39% 30.36 in 10.0 mi WSW 9.2 mph - N/A   Clear
12:55 PM 72.7 °F - 43.9 °F 36% 30.36 in 10.0 mi West 6.9 mph - N/A   Clear
1:15 PM 73.4 °F - 41.9 °F 32% 30.35 in 10.0 mi WSW 8.1 mph - N/A   Clear
1:35 PM 73.6 °F - 40.8 °F 31% 30.34 in 10.0 mi WNW 9.2 mph - N/A   Clear
1:55 PM 73.9 °F - 41.9 °F 32% 30.33 in 10.0 mi SW 11.5 mph - N/A   Clear
2:15 PM 74.8 °F - 42.8 °F 32% 30.32 in 10.0 mi West 6.9 mph - N/A   Scattered Clouds
2:35 PM 75.0 °F - 43.0 °F 32% 30.31 in 10.0 mi WNW 8.1 mph 17.3 mph N/A   Clear
2:55 PM 74.8 °F - 41.9 °F 31% 30.30 in 10.0 mi WSW 13.8 mph 18.4 mph N/A   Scattered Clouds
3:15 PM 75.2 °F - 42.6 °F 31% 30.30 in 10.0 mi WSW 6.9 mph - N/A   Scattered Clouds
3:35 PM 75.2 °F - 41.2 °F 29% 30.29 in 10.0 mi West 9.2 mph - N/A   Clear
3:55 PM 75.7 °F - 41.4 °F 29% 30.28 in 10.0 mi West 8.1 mph - N/A   Clear
4:15 PM 76.1 °F - 41.9 °F 29% 30.27 in 10.0 mi West 10.4 mph - N/A   Clear
4:35 PM 75.7 °F - 39.4 °F 27% 30.27 in 10.0 mi West 5.8 mph - N/A   Clear
4:55 PM 76.3 °F - 38.8 °F 26% 30.26 in 10.0 mi West 3.5 mph - N/A   Clear
5:15 PM 76.8 °F - 39.6 °F 26% 30.25 in 10.0 mi WSW 5.8 mph - N/A   Clear
5:35 PM 76.6 °F - 41.4 °F 28% 30.24 in 10.0 mi West 8.1 mph - N/A   Clear
5:55 PM 76.5 °F - 39.7 °F 27% 30.23 in 10.0 mi West 4.6 mph - N/A   Clear
6:15 PM 76.5 °F - 39.0 °F 26% 30.22 in 10.0 mi West 4.6 mph - N/A   Scattered Clouds
6:35 PM 76.3 °F - 40.5 °F 28% 30.22 in 10.0 mi WSW 5.8 mph - N/A   Clear
6:55 PM 75.9 °F - 42.3 °F 30% 30.21 in 10.0 mi Calm Calm - N/A   Clear
7:15 PM 75.6 °F - 42.4 °F 31% 30.20 in 10.0 mi SSW 5.8 mph - N/A   Clear
7:35 PM 74.3 °F - 42.1 °F 31% 30.20 in 10.0 mi SSW 5.8 mph - N/A   Clear
7:55 PM 73.0 °F - 44.1 °F 35% 30.20 in 10.0 mi SSW 6.9 mph - N/A   Clear
8:15 PM 72.5 °F - 45.7 °F 38% 30.19 in 10.0 mi South 9.2 mph - N/A   Clear
8:35 PM 71.4 °F - 45.9 °F 40% 30.18 in 10.0 mi South 6.9 mph - N/A   Clear
8:55 PM 69.6 °F - 45.0 °F 41% 30.18 in 10.0 mi South 4.6 mph - N/A   Clear
9:15 PM 66.9 °F - 45.7 °F 46% 30.18 in 10.0 mi SSE 5.8 mph - N/A   Clear
9:35 PM 65.1 °F - 45.7 °F 49% 30.18 in 10.0 mi SSE 8.1 mph - N/A   Clear
9:55 PM 64.4 °F - 45.5 °F 50% 30.18 in 10.0 mi South 4.6 mph - N/A   Clear
10:15 PM 63.5 °F - 45.7 °F 52% 30.18 in 10.0 mi South 5.8 mph - N/A   Clear
10:35 PM 62.4 °F - 45.9 °F 55% 30.18 in 10.0 mi SSE 8.1 mph - N/A   Clear
10:55 PM 62.2 °F - 46.8 °F 57% 30.18 in 10.0 mi SSE 6.9 mph - N/A   Scattered Clouds
11:15 PM 64.6 °F - 46.4 °F 52% 30.18 in 10.0 mi SSE 8.1 mph - N/A   Mostly Cloudy
11:35 PM 65.8 °F - 44.8 °F 47% 30.18 in 10.0 mi South 9.2 mph - N/A   Overcast
11:55 PM 65.7 °F - 45.1 °F 47% 30.18 in 10.0 mi South 5.8 mph - N/A   Overcast